SUPERVIEW-1 03

导读 | 星芒AI

SUPERVIEW-1 03 是中国高分辨率商业遥感卫星“高分一号”星座的第三颗卫星,由长光卫星技术有限公司研制。该卫星于2015年10月7日发射,具备多光谱和全色成像能力,分辨率可达0.8米,主要用于土地资源调查、城市规划、环境监测等领域。作为商业遥感卫星,SUPERVIEW-1 03 提供高精度影像服务,支持政府、企业和科研机构的多样化需求,推动了中国遥感数据应用的市场化发展。

基本信息
目录编号:
43099
目录名称:
SUPERVIEW-1 03
国际标识:
2018-002A
轨道中心:
EARTH
卫星名称:
SUPERVIEW-1 03
卫星全名:
--
卫星状态:
在轨 (已飞行2895 天)
发射日期:
2018-01-09 UTC
国别 :
中国 (CN)
星等 :
--
轨道信息
数据来源 国际轨道数据
星历时间: 2025-12-13T07:35:04+0800
10小时前
查看轨道信息
半长轴: 6846.474km
偏心率: 0.0055581
轨道倾角: 97.330°
近地点辐角 128.602°
升交点赤经 67.885°
平近点角 232.022°
近地点: 430.285km
远地点: 506.393km
周期: 93.964分钟
每日圈数: 15.325067
详细信息
使用方式:
暂无
2D轨道图
3D轨道图
轨道高度分析图
轨道倾角分析图
轨道综合分析图
查看轨道综合分析图